This demonstration page uses our WeatherBlox Daily Observations layout. Learn more.

Left ArrowRight Arrow

Hourly Observations for March 25, 2016

Temp ( °F °C ) Dew Point ( °F °C ) Humidity (%) Winds ( mph kmh ) Pressure ( in mb ) Visibility ( mi km ) Precip ( " mm )
12:54 am 00:54 Clear 28 -2.2 18 -7.8 66 66 Calm 30.02 1017 10 16 0.00 0.00
1:54 am 01:54 Clear 25 -3.9 18 -7.8 75 75 Calm 30.01 1016 10 16 0.00 0.00
2:54 am 02:54 Clear 23 -5 16 -8.9 74 74 Calm 29.99 1016 10 16 0.00 0.00
3:54 am 03:54 Clear 25 -3.9 17 -8.3 72 72 SSE 5 7 29.99 1016 10 16 0.00 0.00
4:54 am 04:54 Clear 25 -3.9 17 -8.3 72 72 Calm 29.97 1015 10 16 0.00 0.00
5:54 am 05:54 Clear 25 -3.9 17 -8.3 72 72 S 6 9 29.97 1015 10 16 0.00 0.00
6:54 am 06:54 Clear 26 -3.3 18 -7.8 71 71 SSE 6 9 29.97 1015 10 16 0.00 0.00
7:54 am 07:54 Sunny 25 -3.9 19 -7.2 78 78 S 5 7 29.98 1015 10 16 0.00 0.00
8:54 am 08:54 Sunny 33 0.6 27 -2.8 78 78 SSE 6 9 29.98 1015 10 16 0.00 0.00
9:54 am 09:54 Sunny 41 5 26 -3.3 55 55 S 15 24 29.96 1015 10 16 0.00 0.00
10:54 am 10:54 Mostly Sunny 47 8.3 25 -3.9 42 42 S 15 24 29.94 1014 10 16 0.00 0.00
11:54 am 11:54 Partly Cloudy 51 10.6 24 -4.4 35 35 S 20 31 29.93 1013 10 16 0.00 0.00
12:54 pm 12:54 Partly Cloudy 55 12.8 26 -3.3 33 33 SSW 17 28 29.91 1013 10 16 0.00 0.00
1:54 pm 13:54 Sunny 58 14.4 26 -3.3 29 29 S 17 28 29.88 1012 10 16 0.00 0.00
2:54 pm 14:54 Sunny 59 15 27 -2.8 29 29 S 15 24 29.86 1011 10 16 0.00 0.00
3:54 pm 15:54 Partly Cloudy 55 12.8 27 -2.8 34 34 SSE 12 19 29.86 1011 10 16 0.00 0.00
4:54 pm 16:54 Partly Cloudy 58 14.4 28 -2.2 32 32 SSE 16 26 29.84 1011 10 16 0.00 0.00
5:54 pm 17:54 Cloudy 55 12.8 28 -2.2 35 35 SSE 16 26 29.85 1011 10 16 0.00 0.03
6:54 pm 18:54 Mostly Cloudy 54 12.2 28 -2.2 37 37 ESE 17 28 29.85 1011 10 16 0.00 0.00
7:54 pm 19:54 Cloudy 53 11.7 26 -3.3 35 35 ESE 18 30 29.85 1011 10 16 0.00 0.00
8:54 pm 20:54 Cloudy 52 11.1 28 -2.2 40 40 SE 13 20 29.87 1012 10 16 0.00 0.00
9:54 pm 21:54 Cloudy 52 11.1 28 -2.2 40 40 SSE 10 17 29.89 1012 10 16 0.00 0.00
10:54 pm 22:54 Cloudy 53 11.7 28 -2.2 38 38 SE 16 26 29.89 1012 10 16 0.00 0.00
11:54 pm 23:54 Mostly Cloudy 51 10.6 29 -1.7 43 43 SSE 14 22 29.89 1012 10 16 0.00 0.00

Powered by AerisWeather